Precipitable_Water
1.36 1.16 1.01 0.96 0.91 0.85 0.83 0.84 0.81 0.78 0.73 0.69 0.70 0.65 0.62 0.68 0.72 0.76 0.77 0.77 0.78 0.77 0.73 0.73 0.69 0.69 0.66 0.68 0.71 0.70 0.68 0.66 0.65
1.39 1.16 0.94 0.90 0.84 0.78 0.80 0.78 0.77 0.75 0.70 0.67 0.66 0.64 0.66 0.68 0.70 0.75 0.78 0.79 0.79 0.78 0.75 0.75 0.72 0.72 0.70 0.68 0.67 0.70 0.72 0.70 0.68
1.38 1.14 0.93 0.87 0.82 0.84 0.77 0.76 0.74 0.71 0.69 0.66 0.64 0.62 0.65 0.68 0.71 0.73 0.77 0.78 0.78 0.78 0.75 0.73 0.73 0.71 0.70 0.68 0.66 0.64 0.65 0.68 0.69
1.37 1.11 0.94 0.85 0.80 0.83 0.78 0.78 0.73 0.71 0.69 0.66 0.63 0.63 0.68 0.67 0.71 0.71 0.75 0.77 0.75 0.74 0.74 0.71 0.69 0.70 0.67 0.68 0.67 0.65 0.65 0.63 0.64
1.31 1.07 0.92 0.83 0.83 0.82 0.80 0.78 0.71 0.70 0.67 0.67 0.65 0.61 0.63 0.66 0.70 0.72 0.74 0.74 0.73 0.72 0.71 0.70 0.68 0.66 0.67 0.65 0.67 0.65 0.63 0.64 0.63
1.22 1.04 0.91 0.85 0.84 0.84 0.81 0.76 0.71 0.68 0.69 0.67 0.64 0.61 0.63 0.64 0.68 0.70 0.71 0.72 0.71 0.69 0.69 0.69 0.67 0.65 0.64 0.66 0.66 0.65 0.62 0.61 0.61
1.20 1.01 0.91 0.88 0.84 0.79 0.80 0.73 0.71 0.68 0.67 0.65 0.61 0.63 0.62 0.64 0.66 0.68 0.69 0.69 0.68 0.67 0.66 0.66 0.65 0.64 0.63 0.65 0.65 0.63 0.60 0.57 0.57
1.13 0.95 0.90 0.91 0.85 0.79 0.80 0.74 0.68 0.64 0.64 0.62 0.60 0.62 0.61 0.62 0.64 0.65 0.66 0.66 0.66 0.63 0.63 0.63 0.63 0.63 0.63 0.62 0.64 0.62 0.61 0.60 0.58
0.99 0.89 0.86 0.87 0.85 0.77 0.74 0.69 0.63 0.61 0.60 0.58 0.58 0.60 0.59 0.63 0.64 0.64 0.63 0.64 0.63 0.62 0.61 0.61 0.63 0.62 0.60 0.60 0.63 0.62 0.61 0.61 0.59
0.93 0.88 0.87 0.86 0.82 0.75 0.67 0.62 0.56 0.56 0.58 0.58 0.57 0.57 0.57 0.61 0.60 0.61 0.59 0.60 0.61 0.61 0.61 0.61 0.61 0.61 0.59 0.57 0.59 0.61 0.59 0.59 0.58
0.89 0.84 0.82 0.78 0.76 0.72 0.67 0.56 0.55 0.57 0.57 0.55 0.56 0.54 0.54 0.54 0.55 0.55 0.55 0.55 0.56 0.57 0.57 0.58 0.59 0.60 0.59 0.56 0.54 0.57 0.56 0.55 0.55
0.90 0.80 0.80 0.77 0.72 0.71 0.64 0.56 0.55 0.54 0.57 0.53 0.54 0.51 0.50 0.48 0.46 0.47 0.50 0.49 0.49 0.52 0.50 0.53 0.53 0.57 0.57 0.57 0.55 0.53 0.54 0.55 0.56
1.02 0.93 0.87 0.79 0.74 0.66 0.55 0.52 0.49 0.50 0.50 0.51 0.48 0.45 0.45 0.42 0.40 0.42 0.44 0.44 0.43 0.46 0.48 0.49 0.49 0.51 0.55 0.58 0.55 0.53 0.52 0.54 0.55
1.02 0.90 0.80 0.77 0.71 0.62 0.53 0.50 0.49 0.49 0.45 0.42 0.44 0.38 0.37 0.36 0.35 0.36 0.39 0.41 0.41 0.41 0.42 0.43 0.43 0.47 0.54 0.57 0.56 0.56 0.54 0.55 0.56
1.09 0.87 0.76 0.73 0.64 0.55 0.50 0.48 0.48 0.48 0.39 0.35 0.35 0.34 0.33 0.35 0.35 0.35 0.36 0.37 0.39 0.38 0.37 0.40 0.41 0.44 0.48 0.52 0.54 0.55 0.54 0.54 0.57
1.08 0.84 0.75 0.66 0.57 0.50 0.47 0.44 0.44 0.41 0.36 0.35 0.31 0.32 0.35 0.35 0.36 0.37 0.37 0.37 0.37 0.37 0.38 0.38 0.38 0.40 0.44 0.45 0.48 0.50 0.50 0.53 0.56
1.09 0.85 0.74 0.65 0.53 0.47 0.44 0.43 0.42 0.39 0.39 0.31 0.30 0.29 0.30 0.36 0.38 0.38 0.37 0.38 0.39 0.37 0.38 0.38 0.38 0.38 0.39 0.43 0.41 0.44 0.45 0.50 0.55
1.12 0.89 0.76 0.65 0.56 0.46 0.43 0.41 0.40 0.39 0.37 0.34 0.33 0.28 0.27 0.37 0.38 0.42 0.40 0.38 0.38 0.39 0.39 0.38 0.39 0.39 0.39 0.39 0.39 0.42 0.44 0.49 0.52
1.22 0.88 0.75 0.61 0.53 0.47 0.44 0.41 0.38 0.40 0.37 0.39 0.40 0.37 0.36 0.33 0.32 0.41 0.39 0.40 0.40 0.40 0.40 0.39 0.39 0.40 0.40 0.40 0.40 0.42 0.43 0.47 0.50
1.20 0.93 0.74 0.60 0.51 0.47 0.45 0.43 0.40 0.40 0.40 0.42 0.38 0.37 0.36 0.37 0.35 0.34 0.37 0.40 0.41 0.42 0.41 0.40 0.41 0.41 0.42 0.42 0.42 0.43 0.43 0.46 0.49
Wind_Speed
20 18 17 16 15 14 13 12 11 11 11 11 10 10 10 11 11 11 12 13 15 15 16 16 16 13 10 7 6 5 4 4 4
21 19 19 18 17 16 14 13 12 12 12 11 11 10 9 10 10 10 11 12 14 15 15 16 16 15 14 11 8 6 5 5 4
23 21 20 19 18 17 16 15 14 13 12 12 11 10 9 9 9 9 10 11 12 13 14 15 16 16 15 14 12 9 7 6 5
24 23 22 21 20 18 17 16 15 14 13 12 11 9 8 7 7 8 8 9 11 12 13 14 14 15 15 15 14 12 10 9 7
26 25 24 23 21 20 19 18 16 15 14 13 11 9 8 7 6 6 7 8 9 10 11 12 13 14 14 14 14 13 12 11 10
27 26 26 25 23 22 21 19 18 17 15 13 12 9 7 6 5 6 5 6 7 8 9 10 11 13 13 13 14 13 13 12 11
29 28 27 26 25 24 22 21 20 18 16 14 12 9 8 6 5 5 4 4 5 6 7 8 9 11 12 12 12 13 12 13 12
30 29 28 27 27 25 24 23 22 19 17 15 13 11 9 7 6 5 4 3 4 4 5 6 7 9 10 11 11 11 12 12 12
32 31 30 29 28 27 26 24 22 21 19 16 14 12 10 8 7 5 4 3 3 3 3 4 5 7 8 9 9 10 10 10 11
34 33 32 30 30 28 27 26 24 22 20 17 15 13 11 9 8 6 5 4 3 2 1 2 3 5 6 7 8 8 9 9 9
36 34 33 32 31 30 28 27 25 23 22 19 16 14 12 10 9 7 6 5 4 2 1 0 2 3 4 5 6 7 7 8 9
37 35 35 34 32 32 30 28 26 24 22 20 18 15 14 12 10 8 7 6 5 3 2 1 2 2 3 4 5 6 7 8 9
38 36 34 34 33 32 31 30 28 26 24 22 19 17 15 14 12 10 9 7 6 4 3 2 2 3 4 5 5 6 7 8 9
40 37 36 36 34 33 32 31 29 27 25 23 21 19 17 15 14 12 11 9 8 6 5 4 4 5 5 6 7 8 8 10 11
42 39 38 37 35 34 33 32 30 28 26 24 21 20 18 17 16 14 13 11 10 8 7 6 6 6 7 7 8 9 10 11 12
43 41 40 39 37 36 35 33 32 29 27 24 22 21 20 19 17 16 15 14 13 12 10 9 9 8 9 9 10 11 12 13 14
44 43 42 40 38 38 37 35 33 30 30 25 23 22 22 21 20 19 17 16 15 14 13 12 11 11 11 11 12 13 14 14 15
46 44 43 42 40 40 38 37 34 32 31 28 24 22 22 22 22 22 20 19 17 17 16 15 14 14 14 14 14 15 15 16 17
50 46 45 43 42 41 39 38 36 34 32 30 26 23 22 22 22 23 22 21 20 19 18 17 17 17 17 16 17 17 17 18 19
51 49 46 45 43 42 41 40 37 36 33 30 28 25 23 22 21 22 22 23 22 21 20 20 19 19 19 19 19 19 20 21 22
Wind_Direction
191 189 187 184 179 174 170 165 157 150 142 134 126 117 108 98 89 81 74 68 64 59 57 56 56 58 61 61 58 52 43 37 30
194 193 191 188 184 181 176 171 164 158 149 142 134 125 114 105 94 84 77 71 67 62 58 57 56 57 56 55 52 47 41 34 28
197 196 194 192 188 183 180 177 171 165 157 150 142 133 122 110 100 89 82 75 69 65 60 58 56 56 55 54 52 49 44 38 32
199 199 197 195 192 188 184 181 176 171 165 158 150 142 132 119 108 96 87 80 72 68 62 60 57 54 53 52 52 50 48 45 41
202 200 199 197 194 190 187 184 180 176 171 166 159 152 140 130 118 104 95 87 77 70 64 59 57 55 52 51 49 50 49 48 46
203 203 200 198 196 193 190 186 183 180 177 173 169 166 157 147 133 119 108 95 84 74 67 61 58 55 51 50 48 49 49 49 46
205 203 201 199 197 195 193 190 187 185 184 181 179 178 171 162 151 138 125 108 94 79 70 62 57 55 51 48 48 48 47 46 44
205 202 201 200 198 196 195 193 193 193 191 190 189 185 182 175 165 157 148 130 111 89 72 63 55 53 50 47 46 46 44 42 41
205 203 202 202 200 199 199 197 197 196 195 194 192 192 190 185 179 174 170 157 141 112 80 63 52 48 46 44 42 41 40 36 33
205 204 203 203 202 201 200 200 198 197 198 197 196 196 194 191 190 187 186 180 172 159 104 58 43 38 37 37 35 32 31 28 24
206 206 205 205 203 202 201 200 200 200 200 199 200 200 198 198 197 198 198 196 194 194 196 7 8 18 18 19 20 18 16 15 10
206 207 208 206 204 203 202 201 201 201 202 201 202 203 202 203 203 206 206 201 202 208 220 263 309 336 347 354 356 356 355 355 355
208 207 207 205 203 203 203 203 203 204 204 204 206 207 207 208 211 211 212 212 214 219 232 259 289 304 319 327 333 336 336 338 339
207 207 206 204 205 204 205 205 205 206 206 206 209 210 211 212 215 215 217 219 222 227 237 257 281 295 303 311 315 321 324 325 326
207 206 206 205 206 206 206 206 207 207 207 208 211 214 214 216 218 219 221 224 229 236 245 258 275 287 296 302 308 312 316 318 318
207 207 208 207 208 206 207 207 206 208 209 210 214 218 219 220 223 224 226 230 235 242 250 258 268 279 287 295 301 307 311 314 315
209 208 208 208 208 208 208 208 209 211 211 216 216 222 226 226 227 228 231 234 239 245 251 258 266 275 282 288 294 300 306 310 312
209 209 209 210 209 210 209 210 211 212 214 216 222 226 230 226 230 231 234 238 242 247 252 258 265 272 278 284 288 294 301 306 309
207 210 211 211 211 211 211 211 213 214 216 219 226 229 230 232 233 234 237 240 244 248 253 259 264 270 276 280 284 289 296 302 305
212 210 211 212 212 212 212 213 214 217 218 221 224 228 231 234 237 237 238 242 245 249 254 259 264 269 274 279 282 286 292 298 302